Year,Month,Day,Hour,Minute,Value (Times are PST for temperature in C)
2015,06,24,00,00,19.80
2015,06,24,00,01,19.80
2015,06,24,00,02,19.80
2015,06,24,00,03,19.90
2015,06,24,00,04,19.90
2015,06,24,00,05,19.90
2015,06,24,00,06,19.90
2015,06,24,00,07,19.90
2015,06,24,00,08,19.90
2015,06,24,00,09,19.90
2015,06,24,00,10,19.90
2015,06,24,00,11,19.90
2015,06,24,00,12,19.90
2015,06,24,00,13,20.00
2015,06,24,00,14,20.00
2015,06,24,00,15,20.00
2015,06,24,00,16,19.90
2015,06,24,00,17,19.80
2015,06,24,00,18,19.80
2015,06,24,00,19,19.80
2015,06,24,00,20,19.70
2015,06,24,00,21,19.70
2015,06,24,00,22,19.70
2015,06,24,00,23,19.70
2015,06,24,00,24,19.70
2015,06,24,00,25,19.50
2015,06,24,00,26,19.50
2015,06,24,00,27,19.40
2015,06,24,00,28,19.40
2015,06,24,00,29,19.30
2015,06,24,00,30,19.30
2015,06,24,00,31,19.30
2015,06,24,00,32,19.30
2015,06,24,00,33,19.40
2015,06,24,00,34,19.40
2015,06,24,00,35,19.40
2015,06,24,00,36,19.50
2015,06,24,00,37,19.50
2015,06,24,00,38,19.50
2015,06,24,00,39,19.50
2015,06,24,00,40,19.50
2015,06,24,00,41,19.50
2015,06,24,00,42,19.50
2015,06,24,00,43,19.50
2015,06,24,00,44,19.50
2015,06,24,00,45,19.50
2015,06,24,00,46,19.50
2015,06,24,00,47,19.50
2015,06,24,00,48,19.50
2015,06,24,00,49,19.50
2015,06,24,00,50,19.50
2015,06,24,00,51,19.50
2015,06,24,00,52,19.40
2015,06,24,00,53,19.40
2015,06,24,00,54,19.40
2015,06,24,00,55,19.40
2015,06,24,00,56,19.40
2015,06,24,00,57,19.40
2015,06,24,00,58,19.40
2015,06,24,00,59,19.40
2015,06,24,01,00,19.40
2015,06,24,01,01,19.40
2015,06,24,01,02,19.40
2015,06,24,01,03,19.40
2015,06,24,01,04,19.40
2015,06,24,01,05,19.30
2015,06,24,01,06,19.30
2015,06,24,01,07,19.30
2015,06,24,01,08,19.30
2015,06,24,01,09,19.30
2015,06,24,01,10,19.30
2015,06,24,01,11,19.30
2015,06,24,01,12,19.30
2015,06,24,01,13,19.30
2015,06,24,01,14,19.30
2015,06,24,01,15,19.30
2015,06,24,01,16,19.30
2015,06,24,01,17,19.20
2015,06,24,01,18,19.20
2015,06,24,01,19,19.20
2015,06,24,01,20,19.20
2015,06,24,01,21,19.20
2015,06,24,01,22,19.20
2015,06,24,01,23,19.20
2015,06,24,01,24,19.20
2015,06,24,01,25,19.10
2015,06,24,01,26,19.10
2015,06,24,01,27,19.10
2015,06,24,01,28,19.10
2015,06,24,01,29,19.10
2015,06,24,01,30,19.10
2015,06,24,01,31,19.00
2015,06,24,01,32,19.00
2015,06,24,01,33,19.00
2015,06,24,01,34,19.00
2015,06,24,01,35,19.00
2015,06,24,01,36,19.00
2015,06,24,01,37,19.00
2015,06,24,01,38,18.90
2015,06,24,01,39,18.90
2015,06,24,01,40,18.90
2015,06,24,01,41,18.90
2015,06,24,01,42,18.90
2015,06,24,01,43,18.90
2015,06,24,01,44,18.90
2015,06,24,01,45,18.90
2015,06,24,01,46,18.90
2015,06,24,01,47,18.90
2015,06,24,01,48,18.90
2015,06,24,01,49,18.90
2015,06,24,01,50,18.90
2015,06,24,01,51,18.90
2015,06,24,01,52,18.80
2015,06,24,01,53,18.80
2015,06,24,01,54,18.80
2015,06,24,01,55,18.80
2015,06,24,01,56,18.80
2015,06,24,01,57,18.80
2015,06,24,01,58,18.80
2015,06,24,01,59,18.80
2015,06,24,02,00,18.80
2015,06,24,02,01,18.70
2015,06,24,02,02,18.70
2015,06,24,02,03,18.70
2015,06,24,02,04,18.70
2015,06,24,02,05,18.70
2015,06,24,02,06,18.60
2015,06,24,02,07,18.60
2015,06,24,02,08,18.60
2015,06,24,02,09,18.60
2015,06,24,02,10,18.60
2015,06,24,02,11,18.50
2015,06,24,02,12,18.50
2015,06,24,02,13,18.50
2015,06,24,02,14,18.50
2015,06,24,02,15,18.40
2015,06,24,02,16,18.40
2015,06,24,02,17,18.40
2015,06,24,02,18,18.40
2015,06,24,02,19,18.40
2015,06,24,02,20,18.40
2015,06,24,02,21,18.30
2015,06,24,02,22,18.30
2015,06,24,02,23,18.30
2015,06,24,02,24,18.40
2015,06,24,02,25,18.30
2015,06,24,02,26,18.30
2015,06,24,02,27,18.30
2015,06,24,02,28,18.30
2015,06,24,02,29,18.30
2015,06,24,02,30,18.30
2015,06,24,02,31,18.30
2015,06,24,02,32,18.30
2015,06,24,02,33,18.30
2015,06,24,02,34,18.30
2015,06,24,02,35,18.30
2015,06,24,02,36,18.30
2015,06,24,02,37,18.40
2015,06,24,02,38,18.40
2015,06,24,02,39,18.40
2015,06,24,02,40,18.40
2015,06,24,02,41,18.40
2015,06,24,02,42,18.40
2015,06,24,02,43,18.40
2015,06,24,02,44,18.40
2015,06,24,02,45,18.40
2015,06,24,02,46,18.40
2015,06,24,02,47,18.40
2015,06,24,02,48,18.40
2015,06,24,02,49,18.40
2015,06,24,02,50,18.40
2015,06,24,02,51,18.40
2015,06,24,02,52,18.40
2015,06,24,02,53,18.50
2015,06,24,02,54,18.50
2015,06,24,02,55,18.60
2015,06,24,02,56,18.60
2015,06,24,02,57,18.60
2015,06,24,02,58,18.60
2015,06,24,02,59,18.60
2015,06,24,03,00,18.60
2015,06,24,03,01,18.60
2015,06,24,03,02,18.50
2015,06,24,03,03,18.50
2015,06,24,03,04,18.50
2015,06,24,03,05,18.40
2015,06,24,03,06,18.40
2015,06,24,03,07,18.30
2015,06,24,03,08,18.30
2015,06,24,03,09,18.30
2015,06,24,03,10,18.20
2015,06,24,03,11,18.20
2015,06,24,03,12,18.20
2015,06,24,03,13,18.10
2015,06,24,03,14,18.10
2015,06,24,03,15,18.00
2015,06,24,03,16,18.00
2015,06,24,03,17,17.90
2015,06,24,03,18,17.90
2015,06,24,03,19,17.90
2015,06,24,03,20,17.80
2015,06,24,03,21,17.80
2015,06,24,03,22,17.80
2015,06,24,03,23,17.80
2015,06,24,03,24,17.80
2015,06,24,03,25,17.80
2015,06,24,03,26,17.70
2015,06,24,03,27,17.70
2015,06,24,03,28,17.70
2015,06,24,03,29,17.70
2015,06,24,03,30,17.70
2015,06,24,03,31,17.70
2015,06,24,03,32,17.70
2015,06,24,03,33,17.60
2015,06,24,03,34,17.60
2015,06,24,03,35,17.60
2015,06,24,03,36,17.60
2015,06,24,03,37,17.60
2015,06,24,03,38,17.60
2015,06,24,03,39,17.50
2015,06,24,03,40,17.50
2015,06,24,03,41,17.50
2015,06,24,03,42,17.50
2015,06,24,03,43,17.50
2015,06,24,03,44,17.50
2015,06,24,03,45,17.50
2015,06,24,03,46,17.40
2015,06,24,03,47,17.40
2015,06,24,03,48,17.40
2015,06,24,03,49,17.40
2015,06,24,03,50,17.40
2015,06,24,03,51,17.40
2015,06,24,03,52,17.40
2015,06,24,03,53,17.40
2015,06,24,03,54,17.40
2015,06,24,03,55,17.40
2015,06,24,03,56,17.40
2015,06,24,03,57,17.40
2015,06,24,03,58,17.40
2015,06,24,03,59,17.40
2015,06,24,04,00,17.40
2015,06,24,04,01,17.40
2015,06,24,04,02,17.40
2015,06,24,04,03,17.30
2015,06,24,04,04,17.30
2015,06,24,04,05,17.30
2015,06,24,04,06,17.30
2015,06,24,04,07,17.30
2015,06,24,04,08,17.30
2015,06,24,04,09,17.30
2015,06,24,04,10,17.30
2015,06,24,04,11,17.30
2015,06,24,04,12,17.30
2015,06,24,04,13,17.30
2015,06,24,04,14,17.30
2015,06,24,04,15,17.20
2015,06,24,04,16,17.20
2015,06,24,04,17,17.20
2015,06,24,04,18,17.20
2015,06,24,04,19,17.20
2015,06,24,04,20,17.20
2015,06,24,04,21,17.20
2015,06,24,04,22,17.20
2015,06,24,04,23,17.20
2015,06,24,04,24,17.20
2015,06,24,04,25,17.20
2015,06,24,04,26,17.10
2015,06,24,04,27,17.10
2015,06,24,04,28,17.10
2015,06,24,04,29,17.10
2015,06,24,04,30,17.10
2015,06,24,04,31,17.10
2015,06,24,04,32,17.10
2015,06,24,04,33,17.10
2015,06,24,04,34,17.10
2015,06,24,04,35,17.10
2015,06,24,04,36,17.10
2015,06,24,04,37,17.10
2015,06,24,04,38,17.10
2015,06,24,04,39,17.10
2015,06,24,04,40,17.10
2015,06,24,04,41,17.10
2015,06,24,04,42,17.20
2015,06,24,04,43,17.20
2015,06,24,04,44,17.30
2015,06,24,04,45,17.40
2015,06,24,04,46,17.50
2015,06,24,04,47,17.60
2015,06,24,04,48,17.70
2015,06,24,04,49,17.70
2015,06,24,04,50,17.70
2015,06,24,04,51,17.80
2015,06,24,04,52,17.80
2015,06,24,04,53,17.80
2015,06,24,04,54,17.90
2015,06,24,04,55,17.90
2015,06,24,04,56,17.90
2015,06,24,04,57,17.90
2015,06,24,04,58,17.90
2015,06,24,04,59,17.90
2015,06,24,05,00,17.90
2015,06,24,05,01,17.90
2015,06,24,05,02,17.80
2015,06,24,05,03,17.80
2015,06,24,05,04,17.80
2015,06,24,05,05,17.80
2015,06,24,05,06,17.80
2015,06,24,05,07,17.80
2015,06,24,05,08,17.80
2015,06,24,05,09,17.90
2015,06,24,05,10,17.90
2015,06,24,05,11,17.90
2015,06,24,05,12,17.90
2015,06,24,05,13,17.90
2015,06,24,05,14,17.90
2015,06,24,05,15,17.90
2015,06,24,05,16,17.90
2015,06,24,05,17,17.90
2015,06,24,05,18,17.90
2015,06,24,05,19,17.90
2015,06,24,05,20,17.90
2015,06,24,05,21,18.00
2015,06,24,05,22,17.90
2015,06,24,05,23,17.90
2015,06,24,05,24,17.90
2015,06,24,05,25,17.90
2015,06,24,05,26,17.90
2015,06,24,05,27,17.90
2015,06,24,05,28,17.90
2015,06,24,05,29,17.80
2015,06,24,05,30,17.80
2015,06,24,05,31,17.80
2015,06,24,05,32,17.80
2015,06,24,05,33,17.80
2015,06,24,05,34,17.80
2015,06,24,05,35,17.70
2015,06,24,05,36,17.70
2015,06,24,05,37,17.70
2015,06,24,05,38,17.70
2015,06,24,05,39,17.70
2015,06,24,05,40,17.70
2015,06,24,05,41,17.70
2015,06,24,05,42,17.70
2015,06,24,05,43,17.70
2015,06,24,05,44,17.70
2015,06,24,05,45,17.60
2015,06,24,05,46,17.60
2015,06,24,05,47,17.60
2015,06,24,05,48,17.60
2015,06,24,05,49,17.60
2015,06,24,05,50,17.60
2015,06,24,05,51,17.50
2015,06,24,05,52,17.50
2015,06,24,05,53,17.50
2015,06,24,05,54,17.50
2015,06,24,05,55,17.40
2015,06,24,05,56,17.40
2015,06,24,05,57,17.30
2015,06,24,05,58,17.30
2015,06,24,05,59,17.30
2015,06,24,06,00,17.30
2015,06,24,06,01,17.30
2015,06,24,06,02,17.30
2015,06,24,06,03,17.30
2015,06,24,06,04,17.30
2015,06,24,06,05,17.20
2015,06,24,06,06,17.20
2015,06,24,06,07,17.20
2015,06,24,06,08,17.20
2015,06,24,06,09,17.20
2015,06,24,06,10,17.20
2015,06,24,06,11,17.20
2015,06,24,06,12,17.20
2015,06,24,06,13,17.20
2015,06,24,06,14,17.20
2015,06,24,06,15,17.20
2015,06,24,06,16,17.20
2015,06,24,06,17,17.20
2015,06,24,06,18,17.20
2015,06,24,06,19,17.20
2015,06,24,06,20,17.20
2015,06,24,06,21,17.20
2015,06,24,06,22,17.20
2015,06,24,06,23,17.20
2015,06,24,06,24,17.20
2015,06,24,06,25,17.20
2015,06,24,06,26,17.20
2015,06,24,06,27,17.20
2015,06,24,06,28,17.20
2015,06,24,06,29,17.20
2015,06,24,06,30,17.20
2015,06,24,06,31,17.20
2015,06,24,06,32,17.20
2015,06,24,06,33,17.20
2015,06,24,06,34,17.30
2015,06,24,06,35,17.30
2015,06,24,06,36,17.30
2015,06,24,06,37,17.30
2015,06,24,06,38,17.30
2015,06,24,06,39,17.30
2015,06,24,06,40,17.30
2015,06,24,06,41,17.30
2015,06,24,06,42,17.30
2015,06,24,06,43,17.30
2015,06,24,06,44,17.30
2015,06,24,06,45,17.30
2015,06,24,06,46,17.30
2015,06,24,06,47,17.30
2015,06,24,06,48,17.30
2015,06,24,06,49,17.30
2015,06,24,06,50,17.30
2015,06,24,06,51,17.30
2015,06,24,06,52,17.30
2015,06,24,06,53,17.30
2015,06,24,06,54,17.30
2015,06,24,06,55,17.30
2015,06,24,06,56,17.30
2015,06,24,06,57,17.30
2015,06,24,06,58,17.30
2015,06,24,06,59,17.30
2015,06,24,07,00,17.30
2015,06,24,07,01,17.30
2015,06,24,07,02,17.30
2015,06,24,07,03,17.30
2015,06,24,07,04,17.30
2015,06,24,07,05,17.30
2015,06,24,07,06,17.40
2015,06,24,07,07,17.40
2015,06,24,07,08,17.40
2015,06,24,07,09,17.40
2015,06,24,07,10,17.40
2015,06,24,07,11,17.40
2015,06,24,07,12,17.40
2015,06,24,07,13,17.40
2015,06,24,07,14,17.40
2015,06,24,07,15,17.40
2015,06,24,07,16,17.40
2015,06,24,07,17,17.40
2015,06,24,07,18,17.50
2015,06,24,07,19,17.50
2015,06,24,07,20,17.50
2015,06,24,07,21,17.60
2015,06,24,07,22,17.60
2015,06,24,07,23,17.60
2015,06,24,07,24,17.60
2015,06,24,07,25,17.60
2015,06,24,07,26,17.60
2015,06,24,07,27,17.60
2015,06,24,07,28,17.60
2015,06,24,07,29,17.60
2015,06,24,07,30,17.70
2015,06,24,07,31,17.70
2015,06,24,07,32,17.70
2015,06,24,07,33,17.70
2015,06,24,07,34,17.70
2015,06,24,07,35,17.70
2015,06,24,07,36,17.70
2015,06,24,07,37,17.80
2015,06,24,07,38,17.80
2015,06,24,07,39,17.80
2015,06,24,07,40,17.80
2015,06,24,07,41,17.80
2015,06,24,07,42,17.80
2015,06,24,07,43,17.90
2015,06,24,07,44,17.90
2015,06,24,07,45,17.90
2015,06,24,07,46,17.90
2015,06,24,07,47,17.90
2015,06,24,07,48,17.90
2015,06,24,07,49,17.90
2015,06,24,07,50,17.90
2015,06,24,07,51,17.90
2015,06,24,07,52,17.90
2015,06,24,07,53,17.90
2015,06,24,07,54,17.80
2015,06,24,07,55,17.80
2015,06,24,07,56,17.80
2015,06,24,07,57,17.80
2015,06,24,07,58,17.70
2015,06,24,07,59,17.70
2015,06,24,08,00,17.70
2015,06,24,08,01,17.70
2015,06,24,08,02,17.70
2015,06,24,08,03,17.70
2015,06,24,08,04,17.70
2015,06,24,08,05,17.60
2015,06,24,08,06,17.60
2015,06,24,08,07,17.60
2015,06,24,08,08,17.60
2015,06,24,08,09,17.60
2015,06,24,08,10,17.60
2015,06,24,08,11,17.60
2015,06,24,08,12,17.60
2015,06,24,08,13,17.60
2015,06,24,08,14,17.60
2015,06,24,08,15,17.60
2015,06,24,08,16,17.60
2015,06,24,08,17,17.60
2015,06,24,08,18,17.60
2015,06,24,08,19,17.60
2015,06,24,08,20,17.70
2015,06,24,08,21,17.70
2015,06,24,08,22,17.70
2015,06,24,08,23,17.70
2015,06,24,08,24,17.70
2015,06,24,08,25,17.80
2015,06,24,08,26,17.80
2015,06,24,08,27,17.80
2015,06,24,08,28,17.80
2015,06,24,08,29,17.80
2015,06,24,08,30,17.80
2015,06,24,08,31,17.80
2015,06,24,08,32,17.80
2015,06,24,08,33,17.90
2015,06,24,08,34,17.90
2015,06,24,08,35,17.90
2015,06,24,08,36,18.00
2015,06,24,08,37,18.00
2015,06,24,08,38,18.00
2015,06,24,08,39,18.00
2015,06,24,08,40,18.00
2015,06,24,08,41,18.00
2015,06,24,08,42,18.00
2015,06,24,08,43,18.00
2015,06,24,08,44,18.00
2015,06,24,08,45,18.00
2015,06,24,08,46,18.00
2015,06,24,08,47,18.00
2015,06,24,08,48,18.00
2015,06,24,08,49,18.00
2015,06,24,08,50,18.00
2015,06,24,08,51,17.90
2015,06,24,08,52,18.00
2015,06,24,08,53,18.00
2015,06,24,08,54,18.00
2015,06,24,08,55,18.00
2015,06,24,08,56,18.00
2015,06,24,08,57,18.00
2015,06,24,08,58,18.00
2015,06,24,08,59,18.00
2015,06,24,09,00,18.10
2015,06,24,09,01,18.10
2015,06,24,09,02,18.10
2015,06,24,09,03,18.20
2015,06,24,09,04,18.20
2015,06,24,09,05,18.20
2015,06,24,09,06,18.20
2015,06,24,09,07,18.20
2015,06,24,09,08,18.20
2015,06,24,09,09,18.20
2015,06,24,09,10,18.30
2015,06,24,09,11,18.20
2015,06,24,09,12,18.20
2015,06,24,09,13,18.20
2015,06,24,09,14,18.20
2015,06,24,09,15,18.20
2015,06,24,09,16,18.10
2015,06,24,09,17,18.10
2015,06,24,09,18,18.10
2015,06,24,09,19,18.10
2015,06,24,09,20,18.10
2015,06,24,09,21,18.10
2015,06,24,09,22,18.20
2015,06,24,09,23,18.20
2015,06,24,09,24,18.20
2015,06,24,09,25,18.20
2015,06,24,09,26,18.20
2015,06,24,09,27,18.20
2015,06,24,09,28,18.30
2015,06,24,09,29,18.30
2015,06,24,09,30,18.30
2015,06,24,09,31,18.30
2015,06,24,09,32,18.30
2015,06,24,09,33,18.30
2015,06,24,09,34,18.30
2015,06,24,09,35,18.30
2015,06,24,09,36,18.30
2015,06,24,09,37,18.30
2015,06,24,09,38,18.30
2015,06,24,09,39,18.30
2015,06,24,09,40,18.30
2015,06,24,09,41,18.30
2015,06,24,09,42,18.30
2015,06,24,09,43,18.30
2015,06,24,09,44,18.30
2015,06,24,09,45,18.30
2015,06,24,09,46,18.30
2015,06,24,09,47,18.30
2015,06,24,09,48,18.30
2015,06,24,09,49,18.40
2015,06,24,09,50,18.40
2015,06,24,09,51,18.40
2015,06,24,09,52,18.40
2015,06,24,09,53,18.40
2015,06,24,09,54,18.40
2015,06,24,09,55,18.40
2015,06,24,09,56,18.40
2015,06,24,09,57,18.40
2015,06,24,09,58,18.40
2015,06,24,09,59,18.50
2015,06,24,10,00,18.50
2015,06,24,10,01,18.50
2015,06,24,10,02,18.60
2015,06,24,10,03,18.60
2015,06,24,10,04,18.60
2015,06,24,10,05,18.70
2015,06,24,10,06,18.70
2015,06,24,10,07,18.70
2015,06,24,10,08,18.80
2015,06,24,10,09,18.80
2015,06,24,10,10,18.90
2015,06,24,10,11,18.90
2015,06,24,10,12,18.90
2015,06,24,10,13,19.00
2015,06,24,10,14,19.00
2015,06,24,10,15,19.00
2015,06,24,10,16,19.10
2015,06,24,10,17,19.10
2015,06,24,10,18,19.20
2015,06,24,10,19,19.30
2015,06,24,10,20,19.30
2015,06,24,10,21,19.30
2015,06,24,10,22,19.40
2015,06,24,10,23,19.40
2015,06,24,10,24,19.40
2015,06,24,10,25,19.40
2015,06,24,10,26,19.50
2015,06,24,10,27,19.50
2015,06,24,10,28,19.50
2015,06,24,10,29,19.60
2015,06,24,10,30,19.60
2015,06,24,10,31,19.60
2015,06,24,10,32,19.60
2015,06,24,10,33,19.70
2015,06,24,10,34,19.70
2015,06,24,10,35,19.70
2015,06,24,10,36,19.80
2015,06,24,10,37,19.80
2015,06,24,10,38,19.80
2015,06,24,10,39,19.80
2015,06,24,10,40,19.90
2015,06,24,10,41,19.90
2015,06,24,10,42,19.90
2015,06,24,10,43,19.90
2015,06,24,10,44,20.00
2015,06,24,10,45,20.00
2015,06,24,10,46,20.00
2015,06,24,10,47,20.00
2015,06,24,10,48,20.00
2015,06,24,10,49,19.90
2015,06,24,10,50,19.90
2015,06,24,10,51,19.80
2015,06,24,10,52,19.80
2015,06,24,10,53,19.80
2015,06,24,10,54,19.80
2015,06,24,10,55,19.80
2015,06,24,10,56,19.80
2015,06,24,10,57,19.80
2015,06,24,10,58,19.80
2015,06,24,10,59,19.80
2015,06,24,11,00,19.80
2015,06,24,11,01,19.90
2015,06,24,11,02,20.00
2015,06,24,11,03,20.00
2015,06,24,11,04,20.10
2015,06,24,11,05,20.10
2015,06,24,11,06,20.00
2015,06,24,11,07,19.90
2015,06,24,11,08,19.80
2015,06,24,11,09,19.70
2015,06,24,11,10,19.60
2015,06,24,11,11,19.60
2015,06,24,11,12,19.50
2015,06,24,11,13,19.50
2015,06,24,11,14,19.40
2015,06,24,11,15,19.30
2015,06,24,11,16,19.30
2015,06,24,11,17,19.20
2015,06,24,11,18,19.20
2015,06,24,11,19,19.20
2015,06,24,11,20,19.20
2015,06,24,11,21,19.20
2015,06,24,11,22,19.10
2015,06,24,11,23,19.10
2015,06,24,11,24,19.20
2015,06,24,11,25,19.20
2015,06,24,11,26,19.20
2015,06,24,11,27,19.10
2015,06,24,11,28,19.10
2015,06,24,11,29,19.10
2015,06,24,11,30,19.00
2015,06,24,11,31,18.90
2015,06,24,11,32,18.80
2015,06,24,11,33,18.80
2015,06,24,11,34,18.80
2015,06,24,11,35,18.70
2015,06,24,11,36,18.60
2015,06,24,11,37,18.60
2015,06,24,11,38,18.50
2015,06,24,11,39,18.50
2015,06,24,11,40,18.50
2015,06,24,11,41,18.40
2015,06,24,11,42,18.40
2015,06,24,11,43,18.40
2015,06,24,11,44,18.40
2015,06,24,11,45,18.30
2015,06,24,11,46,18.30
2015,06,24,11,47,18.30
2015,06,24,11,48,18.30
2015,06,24,11,49,18.30
2015,06,24,11,50,18.30
2015,06,24,11,51,18.30
2015,06,24,11,52,18.30
2015,06,24,11,53,18.30
2015,06,24,11,54,18.40
2015,06,24,11,55,18.40
2015,06,24,11,56,18.40
2015,06,24,11,57,18.40
2015,06,24,11,58,18.40
2015,06,24,11,59,18.40
2015,06,24,12,00,18.40
2015,06,24,12,01,18.40
2015,06,24,12,02,18.40
2015,06,24,12,03,18.50
2015,06,24,12,04,18.50
2015,06,24,12,05,18.50
2015,06,24,12,06,18.60
2015,06,24,12,07,18.60
2015,06,24,12,08,18.60
2015,06,24,12,09,18.70
2015,06,24,12,10,18.70
2015,06,24,12,11,18.70
2015,06,24,12,12,18.70
2015,06,24,12,13,18.70
2015,06,24,12,14,18.70
2015,06,24,12,15,18.70
2015,06,24,12,16,18.70
2015,06,24,12,17,18.70
2015,06,24,12,18,18.80
2015,06,24,12,19,18.80
2015,06,24,12,20,18.80
2015,06,24,12,21,18.80
2015,06,24,12,22,18.90
2015,06,24,12,23,18.90
2015,06,24,12,24,18.90
2015,06,24,12,25,18.90
2015,06,24,12,26,19.00
2015,06,24,12,27,19.00
2015,06,24,12,28,19.10
2015,06,24,12,29,19.10
2015,06,24,12,30,19.10
2015,06,24,12,31,19.10
2015,06,24,12,32,19.10
2015,06,24,12,33,19.10
2015,06,24,12,34,19.00
2015,06,24,12,35,19.00
2015,06,24,12,36,19.00
2015,06,24,12,37,18.90
2015,06,24,12,38,18.90
2015,06,24,12,39,18.90
2015,06,24,12,40,18.90
2015,06,24,12,41,18.90
2015,06,24,12,42,18.90
2015,06,24,12,43,18.90
2015,06,24,12,44,19.00
2015,06,24,12,45,19.00
2015,06,24,12,46,19.10
2015,06,24,12,47,19.20
2015,06,24,12,48,19.20
2015,06,24,12,49,19.30
2015,06,24,12,50,19.30
2015,06,24,12,51,19.40
2015,06,24,12,52,19.40
2015,06,24,12,53,19.40
2015,06,24,12,54,19.40
2015,06,24,12,55,19.30
2015,06,24,12,56,19.30
2015,06,24,12,57,19.30
2015,06,24,12,58,19.30
2015,06,24,12,59,19.30
2015,06,24,13,00,19.30
2015,06,24,13,01,19.30
2015,06,24,13,02,19.30
2015,06,24,13,03,19.30
2015,06,24,13,04,19.40
2015,06,24,13,05,19.40
2015,06,24,13,06,19.40
2015,06,24,13,07,19.40
2015,06,24,13,08,19.50
2015,06,24,13,09,19.50
2015,06,24,13,10,19.60
2015,06,24,13,11,19.60
2015,06,24,13,12,19.60
2015,06,24,13,13,19.70
2015,06,24,13,14,19.70
2015,06,24,13,15,19.70
2015,06,24,13,16,19.70
2015,06,24,13,17,19.70
2015,06,24,13,18,19.70
2015,06,24,13,19,19.70
2015,06,24,13,20,19.70
2015,06,24,13,21,19.70
2015,06,24,13,22,19.70
2015,06,24,13,23,19.70
2015,06,24,13,24,19.70
2015,06,24,13,25,19.80
2015,06,24,13,26,19.80
2015,06,24,13,27,19.80
2015,06,24,13,28,19.90
2015,06,24,13,29,19.90
2015,06,24,13,30,20.00
2015,06,24,13,31,20.00
2015,06,24,13,32,20.00
2015,06,24,13,33,20.00
2015,06,24,13,34,20.10
2015,06,24,13,35,20.10
2015,06,24,13,36,20.10
2015,06,24,13,37,20.10
2015,06,24,13,38,20.10
2015,06,24,13,39,20.20
2015,06,24,13,40,20.20
2015,06,24,13,41,20.20
2015,06,24,13,42,20.20
2015,06,24,13,43,20.20
2015,06,24,13,44,20.20
2015,06,24,13,45,20.20
2015,06,24,13,46,20.20
2015,06,24,13,47,20.20
2015,06,24,13,48,20.20
2015,06,24,13,49,20.20
2015,06,24,13,50,20.30
2015,06,24,13,51,20.30
2015,06,24,13,52,20.30
2015,06,24,13,53,20.30
2015,06,24,13,54,20.30
2015,06,24,13,55,20.30
2015,06,24,13,56,20.30
2015,06,24,13,57,20.30
2015,06,24,13,58,20.20
2015,06,24,13,59,20.20
2015,06,24,14,00,20.20
2015,06,24,14,01,20.20
2015,06,24,14,02,20.20
2015,06,24,14,03,20.20
2015,06,24,14,04,20.20
2015,06,24,14,05,20.30
2015,06,24,14,06,20.30
2015,06,24,14,07,20.40
2015,06,24,14,08,20.40
2015,06,24,14,09,20.40
2015,06,24,14,10,20.50
2015,06,24,14,11,20.40
2015,06,24,14,12,20.40
2015,06,24,14,13,20.40
2015,06,24,14,14,20.40
2015,06,24,14,15,20.40
2015,06,24,14,16,20.40
2015,06,24,14,17,20.30
2015,06,24,14,18,20.30
2015,06,24,14,19,20.30
2015,06,24,14,20,20.30
2015,06,24,14,21,20.20
2015,06,24,14,22,20.20
2015,06,24,14,23,20.20
2015,06,24,14,24,20.20
2015,06,24,14,25,20.20
2015,06,24,14,26,20.20
2015,06,24,14,27,20.20
2015,06,24,14,28,20.20
2015,06,24,14,29,20.20
2015,06,24,14,30,20.20
2015,06,24,14,31,20.20
2015,06,24,14,32,20.10
2015,06,24,14,33,20.10
2015,06,24,14,34,20.10
2015,06,24,14,35,20.10
2015,06,24,14,36,20.10
2015,06,24,14,37,20.10
2015,06,24,14,38,20.10
2015,06,24,14,39,20.10
2015,06,24,14,40,20.10
2015,06,24,14,41,20.10
2015,06,24,14,42,20.10
2015,06,24,14,43,20.10
2015,06,24,14,44,20.10
2015,06,24,14,45,20.00
2015,06,24,14,46,20.00
2015,06,24,14,47,19.90
2015,06,24,14,48,19.90
2015,06,24,14,49,19.90
2015,06,24,14,50,19.80
2015,06,24,14,51,19.80
2015,06,24,14,52,19.80
2015,06,24,14,53,19.70
2015,06,24,14,54,19.70
2015,06,24,14,55,19.60
2015,06,24,14,56,19.60
2015,06,24,14,57,19.50
2015,06,24,14,58,19.50
2015,06,24,14,59,19.40
2015,06,24,15,00,19.40
2015,06,24,15,01,19.40
2015,06,24,15,02,19.30
2015,06,24,15,03,19.30
2015,06,24,15,04,19.20
2015,06,24,15,05,19.10
2015,06,24,15,06,19.10
2015,06,24,15,07,19.10
2015,06,24,15,08,19.10
2015,06,24,15,09,19.00
2015,06,24,15,10,18.90
2015,06,24,15,11,18.90
2015,06,24,15,12,18.80
2015,06,24,15,13,18.80
2015,06,24,15,14,18.70
2015,06,24,15,15,18.70
2015,06,24,15,16,18.70
2015,06,24,15,17,18.70
2015,06,24,15,18,18.70
2015,06,24,15,19,18.70
2015,06,24,15,20,18.60
2015,06,24,15,21,18.60
2015,06,24,15,22,18.60
2015,06,24,15,23,18.60
2015,06,24,15,24,18.60
2015,06,24,15,25,18.60
2015,06,24,15,26,18.60
2015,06,24,15,27,18.60
2015,06,24,15,28,18.60
2015,06,24,15,29,18.60
2015,06,24,15,30,18.60
2015,06,24,15,31,18.60
2015,06,24,15,32,18.60
2015,06,24,15,33,18.60
2015,06,24,15,34,18.50
2015,06,24,15,35,18.50
2015,06,24,15,36,18.40
2015,06,24,15,37,18.40
2015,06,24,15,38,18.40
2015,06,24,15,39,18.30
2015,06,24,15,40,18.30
2015,06,24,15,41,18.30
2015,06,24,15,42,18.30
2015,06,24,15,43,18.30
2015,06,24,15,44,18.30
2015,06,24,15,45,18.30
2015,06,24,15,46,18.30
2015,06,24,15,47,18.40
2015,06,24,15,48,18.40
2015,06,24,15,49,18.40
2015,06,24,15,50,18.50
2015,06,24,15,51,18.50
2015,06,24,15,52,18.50
2015,06,24,15,53,18.40
2015,06,24,15,54,18.40
2015,06,24,15,55,18.40
2015,06,24,15,56,18.30
2015,06,24,15,57,18.30
2015,06,24,15,58,18.30
2015,06,24,15,59,18.30
2015,06,24,16,00,18.30
2015,06,24,16,01,18.30
2015,06,24,16,02,18.20
2015,06,24,16,03,18.20
2015,06,24,16,04,18.20
2015,06,24,16,05,18.20
2015,06,24,16,06,18.20
2015,06,24,16,07,18.20
2015,06,24,16,08,18.20
2015,06,24,16,09,18.20
2015,06,24,16,10,18.20
2015,06,24,16,11,18.20
2015,06,24,16,12,18.20
2015,06,24,16,13,18.20
2015,06,24,16,14,18.20
2015,06,24,16,15,18.20
2015,06,24,16,16,18.20
2015,06,24,16,17,18.20
2015,06,24,16,18,18.20
2015,06,24,16,19,18.20
2015,06,24,16,20,18.20
2015,06,24,16,21,18.20
2015,06,24,16,22,18.20
2015,06,24,16,23,18.20
2015,06,24,16,24,18.20
2015,06,24,16,25,18.20
2015,06,24,16,26,18.20
2015,06,24,16,27,18.20
2015,06,24,16,28,18.30
2015,06,24,16,29,18.30
2015,06,24,16,30,18.30
2015,06,24,16,31,18.30
2015,06,24,16,32,18.30
2015,06,24,16,33,18.30
2015,06,24,16,34,18.30
2015,06,24,16,35,18.40
2015,06,24,16,36,18.40
2015,06,24,16,37,18.40
2015,06,24,16,38,18.40
2015,06,24,16,39,18.40
2015,06,24,16,40,18.40
2015,06,24,16,41,18.40
2015,06,24,16,42,18.40
2015,06,24,16,43,18.40
2015,06,24,16,44,18.40
2015,06,24,16,45,18.40
2015,06,24,16,46,18.40
2015,06,24,16,47,18.40
2015,06,24,16,48,18.40
2015,06,24,16,49,18.50
2015,06,24,16,50,18.50
2015,06,24,16,51,18.50
2015,06,24,16,52,18.50
2015,06,24,16,53,18.50
2015,06,24,16,54,18.50
2015,06,24,16,55,18.50
2015,06,24,16,56,18.50
2015,06,24,16,57,18.60
2015,06,24,16,58,18.60
2015,06,24,16,59,18.60
2015,06,24,17,00,18.60
2015,06,24,17,01,18.60
2015,06,24,17,02,18.60
2015,06,24,17,03,18.70
2015,06,24,17,04,18.70
2015,06,24,17,05,18.70
2015,06,24,17,06,18.70
2015,06,24,17,07,18.70
2015,06,24,17,08,18.70
2015,06,24,17,09,18.70
2015,06,24,17,10,18.70
2015,06,24,17,11,18.70
2015,06,24,17,12,18.70
2015,06,24,17,13,18.70
2015,06,24,17,14,18.70
2015,06,24,17,15,18.70
2015,06,24,17,16,18.70
2015,06,24,17,17,18.80
2015,06,24,17,18,18.80
2015,06,24,17,19,18.80